Terminal Aerodrome Forecast
Issued by NWS Topeka, KS

Home | Current Version | Previous Version | Graphics & Text | Print | Product List | Glossary On
Versions: 1 2 3 4 5 6 7 8 9 10 11 12 13 14
000
FTUS43 KTOP 251100
TAFTOP
TAF
KTOP 251120Z 2512/2612 21009KT P6SM FEW100 SCT200
     FM251500 21016G24KT P6SM FEW150
     FM260100 19010KT P6SM SCT100 BKN250=

USA.gov is the U.S. government's official web portal to all federal, state and local government web resources and services.